Regional Weather Roundup
Issued by NWS

Home | Current Version | Previous Version | Graphics & Text | Print | Product List | Glossary On
Versions: 1 2 3 4 5 6 7 8 9 10 11 12 13 14 15 16 17 18 19 20 21 22 23 24 25 26 27 28 29 30 31 32 33 34 35 36 37 38 39 40 41 42 43 44 45 46 47 48 49 50
294
ASUS43 KLSX 281410
RWRMO

WEATHER SUMMARY FOR MISSOURI
NATIONAL WEATHER SERVICE SPRINGFIELD MO
900 AM CDT SUN MAY 28 2017

NOTE: "FAIR" INDICATES FEW OR NO CLOUDS BELOW 12,000 FEET WITH NO
       SIGNIFICANT WEATHER AND/OR OBSTRUCTIONS TO VISIBILITY.
       CURRENT SKY AND/OR WEATHER CONDITIONS ARE NOT AVAILABLE FOR
       CHILLICOTHE AND FARMINGTON.

MOZ001>031-035>038-043-044-053-054-281500-
...NORTHERN AND WESTERN MISSOURI...

CITY           SKY/WX    TMP DP  RH WIND       PRES   REMARKS
KANSAS CTY INT MOSUNNY   67  56  67 NW8       29.93R
KANSAS C DTWN  SUNNY     68  59  73 NW7       29.92R
LEE`S SUMMIT   SUNNY     66  59  78 NW6       29.93R
ST JOSEPH      SUNNY     66  57  72 NW8       29.93R
CHILLICOTHE      N/A     67  57  70 NW7       29.91R
KIRKSVILLE     CLOUDY    65  56  72 NW8       29.88R

$$
MOZ066>068-077>081-088>096-101>105-281500-
...SOUTHWEST MISSOURI...

CITY           SKY/WX    TMP DP  RH WIND       PRES   REMARKS
SPRINGFIELD    CLOUDY    65  62  90 VRB5      29.93R
JOPLIN         PTSUNNY   66  62  87 N6        29.97R
BRANSON        CLOUDY    64  64 100 W5        29.94R FOG

$$
MOZ032>034-039>042-045>050-055>058-069>072-281500-
...CENTRAL MISSOURI...

CITY           SKY/WX    TMP DP  RH WIND       PRES   REMARKS
COLUMBIA       CLOUDY    64  62  93 NW10      29.88R
JEFFERSON CITY CLOUDY    67  62  84 NW8       29.88R
ROLLA          FOG       61  32  33 W8        29.88R VSB 1/4
SEDALIA        CLOUDY    66  61  84 N3        29.92R
WHITEMAN AFB   SUNNY     65  65 100 N8        29.90S
WARRENSBURG    SUNNY     64  57  77 NW7       29.91R
OSAGE BEACH    CLOUDY    63  62  97 W3        29.91R

$$
MOZ051-052-059>065-281500-
...EAST CENTRAL MISSOURI...

CITY           SKY/WX    TMP DP  RH WIND       PRES   REMARKS
ST LOUIS INTL  CLOUDY    68  62  81 W10       29.83R
SPIRIT OF STL  CLOUDY    65  63  93 W9        29.84R
ST CHARLES     CLOUDY    65  63  93 W12       29.82R

$$
MOZ072>076-082>087-097>100-106>115-281500-
...SOUTH CENTRAL AND SOUTHEAST MISSOURI...

CITY           SKY/WX    TMP DP  RH WIND       PRES   REMARKS
CAPE GIRARDEAU CLOUDY    66  62  87 SW13      29.88R
FARMINGTON     CLOUDY    66  62  87 SW7       29.88
POPLAR BLUFF   CLOUDY    67  63  87 SW14G23     N/A
WEST PLAINS    CLOUDY    64  62  93 SW3       29.94R

$$




USA.gov is the U.S. government's official web portal to all federal, state and local government web resources and services.